Hatteras, NC

10:33 PM EDT on August 20, 2017 (GMT -0400)
Mitchell

Weather History for KHSE - May, 2014

Change the Weather History Date:

Monday, May 12, 2014

  Actual Average Record
Temperature  
Mean Temperature 76 °F 66 °F  
Max Temperature 80 °F 73 °F 86 °F (1933)
Min Temperature 71 °F 59 °F 43 °F (1982)
Degree Days  
Heating Degree Days 0 2  
Month to date heating degree days 1 30  
Since 1 July heating degree days 2526 2564  
Cooling Degree Days 11 3  
Month to date cooling degree days 75 27  
Year to date cooling degree days 102 55  
Growing Degree Days 24 (Base 50)    
Moisture  
Dew Point 69 °F    
Average Humidity 84    
Maximum Humidity 93    
Minimum Humidity 74    
Precipitation  
Precipitation 0.00 in 0.11 in 1.23 in (1912)
Month to date precipitation 0.81 1.41  
Year to date precipitation 22.18 19.08  
Snow  
Snow 0.00 in - - ()
Month to date snowfall 0.0  
Since 1 July snowfall 5.7  
Snow Depth 0.00 in    
Sea Level Pressure  
Sea Level Pressure 30.17 in    
Wind  
Wind Speed 6 mph (SW)    
Max Wind Speed 12 mph    
Max Gust Speed 15 mph    
Visibility 7 miles    
Events      
T = Trace of Precipitation, MM = Missing Value Source: NWS Daily Summary

Daily Weather History Graph

Daily Weather History Graph

Search for Another Location

Airport or City:

Trip Planner

Search our weather history database for the weather conditions in past years. The results will help you decide how hot, cold, wet, or windy it might be!

Date:

Astronomy

May. 12, 2014 Rise Set
Actual Time 6:00 AM EDT 7:57 PM EDT
Civil Twilight 5:32 AM EDT 8:25 PM EDT
Nautical Twilight 4:58 AM EDT 8:59 PM EDT
Astronomical Twilight 4:22 AM EDT 9:35 PM EDT
Moon 5:57 PM EDT (5/12) 4:32 AM EDT (5/12)
Length of Visible Light 14h 52m
Length of Day
13h 56m
Waxing Gibbous, 95% of the Moon is Illuminated
May 12
Waxing Gibbous
May 14
Full
May 21
Last Quarter
May 28
New
Jun 5
First Quarter

Hourly Weather History & Observations

Time (EDT) Temp. Dew Point Humidity Pressure Visibility Wind Dir Wind Speed Gust Speed Precip Events Conditions
12:02 AM 72.0 °F 69.1 °F 91% 30.15 in 5.0 mi WSW 4.6 mph - N/A   Scattered Clouds
12:09 AM 72.0 °F 69.1 °F 91% 30.15 in 5.0 mi SW 5.8 mph - N/A   Mostly Cloudy
12:51 AM 72.0 °F 69.1 °F 91% 30.15 in 6.0 mi WSW 8.1 mph - N/A   Overcast
1:01 AM 72.0 °F 69.1 °F 91% 30.15 in 6.0 mi WSW 5.8 mph - N/A   Overcast
1:51 AM 72.0 °F 69.1 °F 91% 30.14 in 7.0 mi WSW 6.9 mph - N/A   Overcast
2:51 AM 72.0 °F 69.1 °F 91% 30.14 in 7.0 mi WSW 6.9 mph - N/A   Overcast
3:30 AM 71.1 °F 69.1 °F 93% 30.13 in 6.0 mi West 4.6 mph - N/A   Partly Cloudy
3:51 AM 71.1 °F 69.1 °F 93% 30.13 in 7.0 mi West 4.6 mph - N/A   Clear
4:04 AM 71.1 °F 69.1 °F 93% 30.14 in 7.0 mi West 5.8 mph - N/A   Partly Cloudy
4:51 AM 72.0 °F 69.1 °F 91% 30.14 in 8.0 mi WNW 3.5 mph - N/A   Scattered Clouds
5:02 AM 72.0 °F 70.0 °F 93% 30.14 in 8.0 mi WNW 4.6 mph - N/A   Mostly Cloudy
5:51 AM 72.0 °F 69.1 °F 91% 30.15 in 8.0 mi Calm Calm - N/A   Overcast
6:51 AM 73.0 °F 70.0 °F 90% 30.17 in 6.0 mi Calm Calm - N/A   Overcast
7:32 AM 75.0 °F 70.0 °F 84% 30.18 in 7.0 mi Calm Calm - N/A   Scattered Clouds
7:51 AM 73.9 °F 69.1 °F 85% 30.17 in 8.0 mi Calm Calm - N/A   Partly Cloudy
8:23 AM 75.0 °F 70.0 °F 84% 30.18 in 7.0 mi Calm Calm - N/A   Mostly Cloudy
8:51 AM 75.9 °F 70.0 °F 82% 30.18 in 8.0 mi South 3.5 mph - N/A   Overcast
9:22 AM 77.0 °F 70.0 °F 79% 30.20 in 8.0 mi SW 3.5 mph - N/A   Scattered Clouds
9:31 AM 75.2 °F 69.8 °F 83% 30.20 in 8.0 mi Variable 3.5 mph - N/A   Mostly Cloudy
9:51 AM 75.9 °F 69.1 °F 79% 30.20 in 8.0 mi Calm Calm - N/A   Mostly Cloudy
10:00 AM 75.9 °F 70.0 °F 82% 30.20 in 8.0 mi South 5.8 mph - N/A   Scattered Clouds
10:28 AM 77.0 °F 70.0 °F 79% 30.21 in 8.0 mi South 4.6 mph - N/A   Mostly Cloudy
10:51 AM 78.1 °F 70.0 °F 76% 30.21 in 9.0 mi SSW 4.6 mph - N/A   Scattered Clouds
11:51 AM 75.9 °F 70.0 °F 82% 30.21 in 9.0 mi SSW 5.8 mph - N/A   Clear
12:51 PM 78.1 °F 69.1 °F 74% 30.20 in 9.0 mi South 6.9 mph - N/A   Clear
1:51 PM 77.0 °F 69.1 °F 76% 30.20 in 10.0 mi SSW 8.1 mph - N/A   Partly Cloudy
2:14 PM 78.1 °F 69.1 °F 74% 30.20 in 10.0 mi SSW 5.8 mph - N/A   Mostly Cloudy
2:34 PM 77.0 °F 69.1 °F 76% 30.19 in 10.0 mi SSW 5.8 mph - N/A   Scattered Clouds
2:51 PM 77.0 °F 69.1 °F 76% 30.19 in 10.0 mi SSW 8.1 mph - N/A   Scattered Clouds
3:27 PM 77.0 °F 69.1 °F 76% 30.18 in 10.0 mi South 5.8 mph - N/A   Scattered Clouds
3:51 PM 78.1 °F 70.0 °F 76% 30.16 in 10.0 mi South 5.8 mph - N/A   Clear
4:51 PM 78.1 °F 69.1 °F 74% 30.16 in 10.0 mi South 6.9 mph - N/A   Clear
5:35 PM 78.1 °F 69.1 °F 74% 30.16 in 10.0 mi South 9.2 mph - N/A   Partly Cloudy
5:51 PM 77.0 °F 70.0 °F 79% 30.15 in 10.0 mi South 8.1 mph - N/A   Clear
6:07 PM 75.9 °F 69.1 °F 79% 30.15 in 10.0 mi SSW 8.1 mph - N/A   Partly Cloudy
6:51 PM 73.9 °F 69.1 °F 85% 30.16 in 8.0 mi SSW 6.9 mph - N/A   Partly Cloudy
7:07 PM 73.0 °F 69.1 °F 87% 30.16 in 8.0 mi SSW 6.9 mph - N/A   Mostly Cloudy
7:23 PM 73.0 °F 69.1 °F 87% 30.16 in 6.0 mi SSW 6.9 mph - N/A   Mostly Cloudy
7:37 PM 72.0 °F 68.0 °F 87% 30.16 in 4.0 mi SW 6.9 mph - N/A   Overcast
7:51 PM 72.0 °F 69.1 °F 91% 30.16 in 1.8 mi SSW 9.2 mph - N/A   Overcast
7:58 PM 72.0 °F 69.1 °F 91% 30.16 in 3.0 mi SSW 9.2 mph - N/A   Overcast
8:42 PM 71.1 °F 69.1 °F 93% 30.16 in 2.0 mi SSW 6.9 mph - N/A   Overcast
8:51 PM 72.0 °F 69.1 °F 91% 30.16 in 3.0 mi SSW 8.1 mph - N/A   Overcast
9:10 PM 73.0 °F 70.0 °F 90% 30.16 in 6.0 mi SSW 6.9 mph - N/A   Scattered Clouds
9:51 PM 73.0 °F 70.0 °F 90% 30.17 in 6.0 mi SW 6.9 mph - N/A   Clear
10:51 PM 73.0 °F 70.0 °F 90% 30.17 in 7.0 mi WSW 5.8 mph - N/A   Clear
11:51 PM 73.0 °F 70.0 °F 90% 30.16 in 7.0 mi SW 8.1 mph - N/A   Clear